ASA65 PAJN-PANC

Flight info

Callsign ASA65
Flight time 1h 26m
Altitude 34000
Route CHLKT2 ALATY JOH WITTI5
Aircraft B739/M-SDE2E3FGHIRWXY/LB1

Departure

Time 2026-04-24 21:33
Airport Juneau International Airport (PAJN)

Arrival

Time 2026-04-24 22:59
Airport Ted Stevens Anchorage International Airport (PANC)
Time Latitude Longitude Altitude Speed Heading
2026-04-24 21:14 58.35847 -134.58435 32 ft 0 kts 47°
2026-04-24 21:24 58.35846 -134.58435 33 ft 1 kts 47°
2026-04-24 21:24 58.35837 -134.58455 32 ft 2 kts 47°
2026-04-24 21:24 58.35827 -134.58476 31 ft 2 kts 53°
2026-04-24 21:25 58.35819 -134.58500 32 ft 2 kts 68°
2026-04-24 21:25 58.35815 -134.58528 30 ft 2 kts 88°
2026-04-24 21:25 58.35817 -134.58556 30 ft 2 kts 124°
2026-04-24 21:25 58.35828 -134.58574 29 ft 2 kts 172°
2026-04-24 21:26 58.35834 -134.58575 33 ft 0 kts 176°
2026-04-24 21:27 58.35823 -134.58577 31 ft 4 kts 188°
2026-04-24 21:27 58.35779 -134.58597 33 ft 7 kts 191°
2026-04-24 21:27 58.35739 -134.58556 32 ft 7 kts 115°
2026-04-24 21:28 58.35724 -134.58464 32 ft 8 kts 105°
2026-04-24 21:28 58.35707 -134.58347 32 ft 10 kts 105°
2026-04-24 21:28 58.35687 -134.58197 32 ft 14 kts 104°
2026-04-24 21:28 58.35659 -134.57997 33 ft 18 kts 104°
2026-04-24 21:29 58.35624 -134.57745 33 ft 22 kts 104°
2026-04-24 21:29 58.35584 -134.57459 33 ft 22 kts 105°
2026-04-24 21:29 58.35545 -134.57178 33 ft 22 kts 105°
2026-04-24 21:29 58.35507 -134.56906 32 ft 21 kts 105°
2026-04-24 21:30 58.35470 -134.56641 31 ft 20 kts 105°
2026-04-24 21:30 58.35434 -134.56385 33 ft 20 kts 105°
2026-04-24 21:30 58.35400 -134.56136 32 ft 19 kts 105°
2026-04-24 21:30 58.35366 -134.55896 32 ft 18 kts 104°
2026-04-24 21:31 58.35334 -134.55666 32 ft 15 kts 105°
2026-04-24 21:31 58.35309 -134.55555 32 ft 7 kts 130°
2026-04-24 21:31 58.35268 -134.55522 32 ft 7 kts 177°
2026-04-24 21:31 58.35219 -134.55547 29 ft 5 kts 200°
2026-04-24 21:32 58.35210 -134.55576 29 ft 3 kts 267°
2026-04-24 21:32 58.35213 -134.55606 29 ft 1 kts 284°
2026-04-24 21:32 58.35219 -134.55654 30 ft 16 kts 284°
2026-04-24 21:32 58.35313 -134.56330 31 ft 88 kts 285°
2026-04-24 21:33 58.35525 -134.57852 34 ft 147 kts 284°
2026-04-24 21:33 58.35712 -134.59225 221 ft 161 kts 282°
2026-04-24 21:33 58.35914 -134.62033 1148 ft 169 kts 270°
2026-04-24 21:33 58.35917 -134.64308 1780 ft 175 kts 270°
2026-04-24 21:34 58.35922 -134.66732 2285 ft 192 kts 270°
2026-04-24 21:34 58.35929 -134.69386 2667 ft 211 kts 273°
2026-04-24 21:34 58.36274 -134.72231 3073 ft 229 kts 289°
2026-04-24 21:34 58.36828 -134.75148 3702 ft 237 kts 289°
2026-04-24 21:35 58.37404 -134.78202 4259 ft 252 kts 288°
2026-04-24 21:35 58.37998 -134.81384 5108 ft 256 kts 288°
2026-04-24 21:35 58.38589 -134.84584 6021 ft 257 kts 287°
2026-04-24 21:35 58.39171 -134.87763 6942 ft 257 kts 287°
2026-04-24 21:36 58.39769 -134.91043 7748 ft 260 kts 287°
2026-04-24 21:36 58.40357 -134.94285 8522 ft 264 kts 287°
2026-04-24 21:36 58.40961 -134.97621 9346 ft 267 kts 287°
2026-04-24 21:36 58.41571 -135.00999 10162 ft 270 kts 287°
2026-04-24 21:37 58.42198 -135.04493 10531 ft 291 kts 287°
2026-04-24 21:37 58.42877 -135.08290 10721 ft 314 kts 287°
2026-04-24 21:37 58.43747 -135.12231 11135 ft 329 kts 297°
2026-04-24 21:37 58.44968 -135.15975 11833 ft 334 kts 300°
2026-04-24 21:38 58.46252 -135.19699 12607 ft 338 kts 300°
2026-04-24 21:38 58.47556 -135.23457 13346 ft 341 kts 300°
2026-04-24 21:38 58.48868 -135.27276 14065 ft 345 kts 300°
2026-04-24 21:38 58.50183 -135.31149 14711 ft 349 kts 299°
2026-04-24 21:39 58.51483 -135.35102 15356 ft 352 kts 300°
2026-04-24 21:39 58.52820 -135.39057 15979 ft 356 kts 300°
2026-04-24 21:39 58.54152 -135.43022 16590 ft 360 kts 300°
2026-04-24 21:39 58.55510 -135.47086 17227 ft 363 kts 300°
2026-04-24 21:40 58.56875 -135.51193 17837 ft 368 kts 300°
2026-04-24 21:40 58.58250 -135.55347 18427 ft 372 kts 300°
2026-04-24 21:40 58.59641 -135.59560 18980 ft 375 kts 300°
2026-04-24 21:40 58.61041 -135.63809 19545 ft 378 kts 300°
2026-04-24 21:41 58.62450 -135.68093 20113 ft 381 kts 300°
2026-04-24 21:41 58.63870 -135.72420 20648 ft 385 kts 300°
2026-04-24 21:41 58.65303 -135.76795 21164 ft 389 kts 300°
2026-04-24 21:41 58.66750 -135.81221 21676 ft 392 kts 300°
2026-04-24 21:42 58.68204 -135.85677 22175 ft 396 kts 300°
2026-04-24 21:42 58.69673 -135.90188 22680 ft 399 kts 300°
2026-04-24 21:42 58.71135 -135.94685 23180 ft 403 kts 300°
2026-04-24 21:42 58.72624 -135.99276 23686 ft 406 kts 300°
2026-04-24 21:43 58.74126 -136.03913 24131 ft 410 kts 300°
2026-04-24 21:43 58.75636 -136.08585 24575 ft 412 kts 300°
2026-04-24 21:43 58.77152 -136.13280 25028 ft 413 kts 300°
2026-04-24 21:43 58.78670 -136.18002 25478 ft 415 kts 300°
2026-04-24 21:44 58.80194 -136.22745 25888 ft 418 kts 300°
2026-04-24 21:44 58.81730 -136.27532 26320 ft 420 kts 300°
2026-04-24 21:44 58.83267 -136.32336 26765 ft 421 kts 300°
2026-04-24 21:44 58.84808 -136.37158 27183 ft 423 kts 300°
2026-04-24 21:45 58.86360 -136.42026 27584 ft 426 kts 300°
2026-04-24 21:45 58.87914 -136.46911 28001 ft 428 kts 300°
2026-04-24 21:45 58.89472 -136.51820 28429 ft 429 kts 300°
2026-04-24 21:45 58.91036 -136.56758 28816 ft 431 kts 299°
2026-04-24 21:46 58.92582 -136.61651 29189 ft 434 kts 299°
2026-04-24 21:46 58.94161 -136.66658 29577 ft 436 kts 299°
2026-04-24 21:46 58.95742 -136.71677 30004 ft 436 kts 298°
2026-04-24 21:46 58.97310 -136.76667 30579 ft 432 kts 298°
2026-04-24 21:47 58.98865 -136.81626 31089 ft 429 kts 298°
2026-04-24 21:47 58.99910 -136.84965 31363 ft 429 kts 298°
2026-04-24 21:47 59.01958 -136.91529 31807 ft 429 kts 298°
2026-04-24 21:47 59.03498 -136.96478 32208 ft 428 kts 298°
2026-04-24 21:48 59.05036 -137.01428 32639 ft 427 kts 298°
2026-04-24 21:48 59.06566 -137.06360 33037 ft 425 kts 298°
2026-04-24 21:48 59.08091 -137.11290 33377 ft 425 kts 298°
2026-04-24 21:48 59.09611 -137.16213 33701 ft 425 kts 298°
2026-04-24 21:49 59.11129 -137.21139 34049 ft 424 kts 298°
2026-04-24 21:49 59.12643 -137.26064 34385 ft 423 kts 298°
2026-04-24 21:49 59.14161 -137.31011 34377 ft 427 kts 298°
2026-04-24 21:50 59.17187 -137.40904 34397 ft 423 kts 298°
2026-04-24 21:50 59.20181 -137.50736 34406 ft 420 kts 298°
2026-04-24 21:51 59.23137 -137.60482 34413 ft 419 kts 298°
2026-04-24 21:51 59.26097 -137.70288 34397 ft 419 kts 297°
2026-04-24 21:52 59.29048 -137.80117 34423 ft 420 kts 297°
2026-04-24 21:52 59.32036 -137.90106 34435 ft 430 kts 297°
2026-04-24 21:53 59.35076 -138.00285 34445 ft 433 kts 297°
2026-04-24 21:53 59.38104 -138.10477 34453 ft 432 kts 297°
2026-04-24 21:54 59.41125 -138.20695 34459 ft 432 kts 297°
2026-04-24 21:54 59.43569 -138.31379 34478 ft 427 kts 284°
2026-04-24 21:55 59.45296 -138.42541 34460 ft 426 kts 283°
2026-04-24 21:55 59.46693 -138.51827 34461 ft 425 kts 283°
2026-04-24 21:56 59.48699 -138.64751 34468 ft 424 kts 284°
2026-04-24 21:56 59.50449 -138.75822 34443 ft 423 kts 284°
2026-04-24 21:57 59.51914 -138.85077 34445 ft 422 kts 284°
2026-04-24 21:57 59.53641 -138.96042 34477 ft 422 kts 283°
2026-04-24 21:58 59.55372 -139.07122 34447 ft 423 kts 283°
2026-04-24 21:58 59.57094 -139.18216 34439 ft 423 kts 283°
2026-04-24 21:59 59.58807 -139.29314 34435 ft 422 kts 283°
2026-04-24 21:59 59.60507 -139.40405 34437 ft 422 kts 283°
2026-04-24 22:00 59.62197 -139.51506 34427 ft 422 kts 283°
2026-04-24 22:00 59.63878 -139.62613 34443 ft 422 kts 282°
2026-04-24 22:01 59.65534 -139.73639 34456 ft 421 kts 281°
2026-04-24 22:01 59.67195 -139.84782 34444 ft 421 kts 281°
2026-04-24 22:02 59.68848 -139.95920 34444 ft 421 kts 281°
2026-04-24 22:02 59.70490 -140.07064 34429 ft 422 kts 281°
2026-04-24 22:03 59.72124 -140.18234 34432 ft 422 kts 281°
2026-04-24 22:03 59.73740 -140.29358 34444 ft 423 kts 280°
2026-04-24 22:04 59.75361 -140.40587 34421 ft 424 kts 280°
2026-04-24 22:04 59.76973 -140.51829 34427 ft 423 kts 280°
2026-04-24 22:05 59.78575 -140.63081 34416 ft 423 kts 280°
2026-04-24 22:05 59.80163 -140.74315 34426 ft 422 kts 280°
2026-04-24 22:06 59.81743 -140.85571 34422 ft 422 kts 280°
2026-04-24 22:06 59.83298 -140.96727 34427 ft 421 kts 279°
2026-04-24 22:07 59.84850 -141.07936 34416 ft 420 kts 279°
2026-04-24 22:07 59.86386 -141.19110 34407 ft 418 kts 279°
2026-04-24 22:08 59.87906 -141.30245 34407 ft 416 kts 279°
2026-04-24 22:08 59.89411 -141.41356 34408 ft 415 kts 279°
2026-04-24 22:09 59.90900 -141.52460 34403 ft 415 kts 278°
2026-04-24 22:09 59.92388 -141.63600 34414 ft 417 kts 278°
2026-04-24 22:10 59.93875 -141.74814 34397 ft 419 kts 278°
2026-04-24 22:10 59.95361 -141.86096 34384 ft 420 kts 278°
2026-04-24 22:11 59.96837 -141.97379 34385 ft 420 kts 278°
2026-04-24 22:11 59.98300 -142.08655 34383 ft 419 kts 278°
2026-04-24 22:12 59.99752 -142.19935 34368 ft 419 kts 277°
2026-04-24 22:12 60.01193 -142.31207 34389 ft 419 kts 277°
2026-04-24 22:13 60.02616 -142.42436 34379 ft 419 kts 276°
2026-04-24 22:13 60.04038 -142.53736 34358 ft 418 kts 276°
2026-04-24 22:14 60.05447 -142.65010 34367 ft 416 kts 276°
2026-04-24 22:14 60.06840 -142.76241 34365 ft 415 kts 276°
2026-04-24 22:15 60.08217 -142.87442 34365 ft 413 kts 276°
2026-04-24 22:15 60.09580 -142.98613 34384 ft 413 kts 275°
2026-04-24 22:16 60.10927 -143.09741 34367 ft 413 kts 275°
2026-04-24 22:16 60.12272 -143.20945 34366 ft 414 kts 275°
2026-04-24 22:17 60.13611 -143.32180 34363 ft 414 kts 275°
2026-04-24 22:17 60.14942 -143.43440 34361 ft 415 kts 275°
2026-04-24 22:18 60.16266 -143.54720 34347 ft 416 kts 275°
2026-04-24 22:18 60.17584 -143.66049 34348 ft 416 kts 275°
2026-04-24 22:19 60.18894 -143.77396 34345 ft 417 kts 274°
2026-04-24 22:19 60.20187 -143.88684 34344 ft 417 kts 274°
2026-04-24 22:20 60.21477 -144.00045 34345 ft 417 kts 274°
2026-04-24 22:20 60.22758 -144.11419 34341 ft 417 kts 274°
2026-04-24 22:21 60.24030 -144.22806 34332 ft 416 kts 274°
2026-04-24 22:21 60.25287 -144.34158 34367 ft 415 kts 273°
2026-04-24 22:22 60.26532 -144.45499 34345 ft 414 kts 273°
2026-04-24 22:22 60.27765 -144.56832 34338 ft 414 kts 273°
2026-04-24 22:23 60.28988 -144.68172 34326 ft 414 kts 273°
2026-04-24 22:23 60.30202 -144.79513 34332 ft 413 kts 273°
2026-04-24 22:24 60.31403 -144.90838 34333 ft 412 kts 273°
2026-04-24 22:24 60.32584 -145.02072 34369 ft 412 kts 272°
2026-04-24 22:25 60.33764 -145.13407 34327 ft 413 kts 272°
2026-04-24 22:25 60.34937 -145.24767 34314 ft 413 kts 271°
2026-04-24 22:26 60.36100 -145.36121 34314 ft 412 kts 271°
2026-04-24 22:26 60.37251 -145.47468 34308 ft 412 kts 271°
2026-04-24 22:27 60.38391 -145.58810 34306 ft 412 kts 271°
2026-04-24 22:27 60.39521 -145.70158 34293 ft 412 kts 271°
2026-04-24 22:28 60.40643 -145.81533 34295 ft 412 kts 270°
2026-04-24 22:28 60.41755 -145.92914 34290 ft 412 kts 270°
2026-04-24 22:29 60.43398 -146.09916 34296 ft 412 kts 270°
2026-04-24 22:29 60.44486 -146.21312 34297 ft 412 kts 270°
2026-04-24 22:30 60.45563 -146.32706 34313 ft 412 kts 270°
2026-04-24 22:30 60.46631 -146.44111 34325 ft 412 kts 269°
2026-04-24 22:31 60.47686 -146.55470 34303 ft 412 kts 269°
2026-04-24 22:31 60.49009 -146.66727 33957 ft 411 kts 276°
2026-04-24 22:32 60.49923 -146.72177 33597 ft 406 kts 277°
2026-04-24 22:32 60.50870 -146.77541 33188 ft 401 kts 278°
2026-04-24 22:32 60.51805 -146.82842 32728 ft 396 kts 277°
2026-04-24 22:32 60.52709 -146.88074 32321 ft 391 kts 277°
2026-04-24 22:33 60.53583 -146.93277 31856 ft 388 kts 276°
2026-04-24 22:33 60.54439 -146.98439 31445 ft 384 kts 276°
2026-04-24 22:33 60.55282 -147.03569 31025 ft 381 kts 276°
2026-04-24 22:33 60.56109 -147.08648 30654 ft 377 kts 276°
2026-04-24 22:34 60.56927 -147.13697 30222 ft 374 kts 275°
2026-04-24 22:34 60.57735 -147.18709 29739 ft 371 kts 275°
2026-04-24 22:34 60.58534 -147.23669 29341 ft 366 kts 275°
2026-04-24 22:34 60.59321 -147.28566 28947 ft 362 kts 275°
2026-04-24 22:35 60.60098 -147.33413 28553 ft 358 kts 275°
2026-04-24 22:35 60.60861 -147.38198 28168 ft 353 kts 275°
2026-04-24 22:35 60.61615 -147.42935 27788 ft 350 kts 275°
2026-04-24 22:35 60.62359 -147.47627 27409 ft 346 kts 275°
2026-04-24 22:36 60.63083 -147.52204 27029 ft 343 kts 275°
2026-04-24 22:36 60.63810 -147.56809 26643 ft 340 kts 275°
2026-04-24 22:36 60.64528 -147.61371 26293 ft 337 kts 275°
2026-04-24 22:36 60.65240 -147.65916 25924 ft 336 kts 275°
2026-04-24 22:37 60.65948 -147.70459 25574 ft 338 kts 275°
2026-04-24 22:37 60.66665 -147.75095 25271 ft 347 kts 275°
2026-04-24 22:37 60.67399 -147.79862 24844 ft 355 kts 276°
2026-04-24 22:37 60.68144 -147.84647 24455 ft 353 kts 276°
2026-04-24 22:38 60.68888 -147.89411 24076 ft 351 kts 276°
2026-04-24 22:38 60.69628 -147.94163 23658 ft 350 kts 277°
2026-04-24 22:38 60.70357 -147.98866 23231 ft 346 kts 277°
2026-04-24 22:38 60.71074 -148.03516 22884 ft 341 kts 277°
2026-04-24 22:39 60.71779 -148.08118 22519 ft 337 kts 277°
2026-04-24 22:39 60.72476 -148.12673 22146 ft 335 kts 277°
2026-04-24 22:39 60.73167 -148.17204 21786 ft 333 kts 277°
2026-04-24 22:39 60.73850 -148.21699 21440 ft 329 kts 277°
2026-04-24 22:40 60.74522 -148.26136 21126 ft 325 kts 277°
2026-04-24 22:40 60.75182 -148.30524 20788 ft 322 kts 277°
2026-04-24 22:40 60.75825 -148.34833 20439 ft 320 kts 277°
2026-04-24 22:40 60.76471 -148.39169 20096 ft 318 kts 278°
2026-04-24 22:41 60.77111 -148.43489 19742 ft 317 kts 278°
2026-04-24 22:41 60.77751 -148.47806 19386 ft 316 kts 278°
2026-04-24 22:41 60.78386 -148.52103 19039 ft 315 kts 279°
2026-04-24 22:41 60.78815 -148.55007 18786 ft 316 kts 279°
2026-04-24 22:42 60.79655 -148.60707 18299 ft 315 kts 279°
2026-04-24 22:42 60.80284 -148.64990 17905 ft 313 kts 279°
2026-04-24 22:42 60.80911 -148.69268 17467 ft 315 kts 279°
2026-04-24 22:42 60.81539 -148.73578 17063 ft 315 kts 279°
2026-04-24 22:43 60.82166 -148.77875 16675 ft 315 kts 279°
2026-04-24 22:43 60.82792 -148.82174 16333 ft 313 kts 280°
2026-04-24 22:43 60.83411 -148.86436 15976 ft 310 kts 280°
2026-04-24 22:43 60.84021 -148.90647 15627 ft 307 kts 279°
2026-04-24 22:44 60.84618 -148.94780 15275 ft 304 kts 279°
2026-04-24 22:44 60.85216 -148.98931 14952 ft 302 kts 279°
2026-04-24 22:44 60.85807 -149.03054 14619 ft 301 kts 279°
2026-04-24 22:44 60.86395 -149.07160 14321 ft 299 kts 279°
2026-04-24 22:45 60.86782 -149.09870 14087 ft 298 kts 280°
2026-04-24 22:45 60.87556 -149.15294 13615 ft 293 kts 279°
2026-04-24 22:45 60.87934 -149.17945 13427 ft 290 kts 278°
2026-04-24 22:45 60.88498 -149.21883 13055 ft 284 kts 281°
2026-04-24 22:46 60.89221 -149.25652 12831 ft 286 kts 288°
2026-04-24 22:46 60.90098 -149.29435 12620 ft 299 kts 290°
2026-04-24 22:46 60.91022 -149.33331 12360 ft 308 kts 290°
2026-04-24 22:46 60.91960 -149.37316 12099 ft 311 kts 290°
2026-04-24 22:47 60.92881 -149.41270 11838 ft 310 kts 289°
2026-04-24 22:47 60.93802 -149.45257 11564 ft 307 kts 289°
2026-04-24 22:47 60.94707 -149.49212 11323 ft 303 kts 289°
2026-04-24 22:47 60.95594 -149.53115 11008 ft 301 kts 289°
2026-04-24 22:48 60.96475 -149.57020 10677 ft 301 kts 289°
2026-04-24 22:48 60.97357 -149.60926 10331 ft 301 kts 288°
2026-04-24 22:48 60.98233 -149.64811 10162 ft 296 kts 289°
2026-04-24 22:48 60.99090 -149.68625 9955 ft 293 kts 290°
2026-04-24 22:49 60.99943 -149.72418 9656 ft 291 kts 292°
2026-04-24 22:49 61.01127 -149.75854 9195 ft 301 kts 314°
2026-04-24 22:49 61.02692 -149.78737 8856 ft 302 kts 316°
2026-04-24 22:49 61.04255 -149.81628 8511 ft 300 kts 315°
2026-04-24 22:50 61.05792 -149.84530 8067 ft 300 kts 315°
2026-04-24 22:50 61.07329 -149.87470 7613 ft 302 kts 315°
2026-04-24 22:50 61.08869 -149.90432 7160 ft 303 kts 315°
2026-04-24 22:50 61.10131 -149.93854 6684 ft 299 kts 288°
2026-04-24 22:51 61.10545 -149.97979 6286 ft 290 kts 266°
2026-04-24 22:51 61.10521 -150.02112 5906 ft 286 kts 263°
2026-04-24 22:51 61.10448 -150.06217 5526 ft 285 kts 263°
2026-04-24 22:51 61.10375 -150.10323 5211 ft 286 kts 264°
2026-04-24 22:52 61.10310 -150.14400 4976 ft 283 kts 265°
2026-04-24 22:52 61.10256 -150.18361 4681 ft 282 kts 265°
2026-04-24 22:52 61.10202 -150.22422 4428 ft 280 kts 265°
2026-04-24 22:52 61.10150 -150.26421 4176 ft 277 kts 266°
2026-04-24 22:53 61.10097 -150.30385 3933 ft 274 kts 266°
2026-04-24 22:53 61.10022 -150.34321 3679 ft 272 kts 266°
2026-04-24 22:53 61.09963 -150.38193 3489 ft 267 kts 266°
2026-04-24 22:53 61.10022 -150.41969 3343 ft 260 kts 282°
2026-04-24 22:54 61.10811 -150.45198 3191 ft 248 kts 315°
2026-04-24 22:54 61.12195 -150.47035 3031 ft 230 kts 348°
2026-04-24 22:54 61.13694 -150.47025 2985 ft 207 kts 23°
2026-04-24 22:54 61.14777 -150.45370 3003 ft 191 kts 60°
2026-04-24 22:55 61.15347 -150.42935 3012 ft 188 kts 69°
2026-04-24 22:55 61.15807 -150.40409 3001 ft 187 kts 73°
2026-04-24 22:55 61.16221 -150.37860 3001 ft 187 kts 74°
2026-04-24 22:55 61.16617 -150.35292 2992 ft 186 kts 79°
2026-04-24 22:56 61.16741 -150.32677 2911 ft 185 kts 90°
2026-04-24 22:56 61.16777 -150.30031 2675 ft 181 kts 90°
2026-04-24 22:56 61.16788 -150.27453 2428 ft 176 kts 91°
2026-04-24 22:56 61.16788 -150.24990 2215 ft 169 kts 91°
2026-04-24 22:57 61.16785 -150.22538 1967 ft 170 kts 90°
2026-04-24 22:57 61.16782 -150.20111 1729 ft 167 kts 90°
2026-04-24 22:57 61.16781 -150.17773 1519 ft 155 kts 90°
2026-04-24 22:57 61.16780 -150.15566 1291 ft 150 kts 88°
2026-04-24 22:58 61.16777 -150.13403 1090 ft 150 kts 89°
2026-04-24 22:58 61.16775 -150.11251 844 ft 149 kts 88°
2026-04-24 22:58 61.16780 -150.09067 660 ft 153 kts 88°
2026-04-24 22:58 61.16776 -150.06848 439 ft 155 kts 88°
2026-04-24 22:59 61.16782 -150.04619 245 ft 155 kts 89°
2026-04-24 22:59 61.16784 -150.02443 138 ft 142 kts 89°
2026-04-24 22:59 61.16788 -149.99984 129 ft 36 kts 84°
2026-04-24 23:00 61.16829 -149.99627 125 ft 22 kts 67°
2026-04-24 23:00 61.16920 -149.99378 123 ft 22 kts 33°
2026-04-24 23:00 61.17041 -149.99204 119 ft 21 kts 37°
2026-04-24 23:00 61.17141 -149.99030 113 ft 17 kts 48°
2026-04-24 23:01 61.17215 -149.98849 111 ft 16 kts 50°
2026-04-24 23:01 61.17287 -149.98737 110 ft 13 kts 33°
2026-04-24 23:01 61.17360 -149.98640 109 ft 12 kts 34°
2026-04-24 23:01 61.17414 -149.98559 107 ft 7 kts 46°
2026-04-24 23:02 61.17426 -149.98478 107 ft 5 kts 81°
2026-04-24 23:02 61.17431 -149.98413 110 ft 2 kts 81°
2026-04-24 23:02 61.17432 -149.98400 110 ft 0 kts 81°